Flag for Germany Weather past 2 weeks in Geesthacht, Schleswig-Holstein, Germany

Now
68 °F

Rain showers. Broken clouds.


Feels Like: 68 °F
Forecast: 56 / 76 °F
Wind: 9 mph from West

Location: Hamburg-Fuhlsbuettel

Current Time: Aug 4, 2015 at 6:44:33 PM

Latest Report: Aug 4, 2015 at 6:20 PM


Visibility: 4 mi

Pressure: 29.92 "Hg

Humidity: 88%

Dew point: 64 °F

Location of GeesthachtLocation

Historic Weather in Geesthacht — Graph

°F

Geesthacht temperature yesterday

Maximum temperature yesterday: 86 °F (at 3:20 PM)
Minimum temperature yesterday: 52 °F (at 5:20 AM)
Average temperature yesterday: 71 °F

Past Weeks' High & Low Weather Summary

 TemperatureHumidityPressure
High86 °F (Aug 3, 3:20 PM)100% (Jul 24, 1:50 AM)30.15 "Hg (Jul 24, 1:50 AM)
Low45 °F (Aug 1, 1:50 AM)33% (Aug 3, 5:50 PM)29.42 "Hg (Jul 25, 1:20 PM)
Average63 °F74%29.83 "Hg
* Reported Jul 20 5:20 PM — Aug 4 5:20 PM, Geesthacht, Weather by CustomWeather, © 2015

Note: Actual official high and low records may vary slightly from our data, if they occured in-between our weather recording intervals... More about our weather records

Advertising

Geesthacht weather history for previous 24 hours

 ConditionsComfort  
Time TempWeatherWind HumidityBarometerVisibility
5:20 PM
Tue, Aug 4
72 °FSprinkles. Partly sunny.9 mph88%29.86 "HgN/A
4:50 PM72 °FScattered showers. Partly sunny.No wind88%29.86 "HgN/A
4:20 PM70 °FLots of rain. Broken clouds.7 mph88%29.86 "Hg4 mi
3:50 PM72 °FStrong thunderstorms. Partly sunny.16 mph83%29.86 "Hg3 mi
3:20 PM82 °FScattered showers. Partly sunny.13 mph48%29.80 "HgN/A
2:50 PM86 °FPassing clouds.8 mph46%29.80 "HgN/A
2:20 PM84 °FPassing clouds.7 mph48%29.83 "HgN/A
1:50 PM86 °FSunny.3 mph43%29.83 "Hg10 mi
1:20 PM86 °FPassing clouds.5 mph46%29.83 "HgN/A
12:50 PM84 °FSunny.3 mph43%29.83 "Hg10 mi
12:20 PM82 °FPassing clouds.5 mph45%29.83 "HgN/A
11:50 AM82 °FPassing clouds.3 mph51%29.86 "HgN/A
11:20 AM81 °FSunny.3 mph51%29.86 "Hg10 mi
10:50 AM81 °FPassing clouds.7 mph51%29.86 "HgN/A
10:20 AM81 °FPassing clouds.8 mph48%29.86 "HgN/A
9:50 AM79 °FSunny.10 mph54%29.86 "Hg10 mi
9:20 AM77 °FPassing clouds.10 mph54%29.86 "HgN/A
8:50 AM75 °FPassing clouds.10 mph57%29.86 "HgN/A
8:20 AM73 °FPassing clouds.8 mph61%29.89 "HgN/A
7:50 AM72 °FPassing clouds.9 mph61%29.89 "HgN/A
7:20 AM70 °FPassing clouds.10 mph64%29.89 "HgN/A
6:50 AM68 °FSunny.10 mph69%29.89 "Hg10 mi
6:20 AM68 °FClear.9 mph69%29.89 "Hg10 mi
5:50 AM66 °FClear.9 mph68%29.89 "Hg10 mi
5:20 AM68 °FClear.10 mph64%29.89 "Hg10 mi
4:50 AM68 °FClear.9 mph69%29.92 "Hg10 mi
4:20 AM68 °FClear.8 mph69%29.92 "Hg10 mi
3:50 AM68 °FClear.7 mph64%29.92 "Hg10 mi
3:20 AM68 °FClear.8 mph64%29.92 "Hg10 mi
2:50 AM70 °FClear.10 mph60%29.95 "Hg10 mi
2:20 AM70 °FMild.10 mph64%29.95 "HgN/A
1:50 AM72 °FClear.9 mph61%29.95 "Hg10 mi
1:20 AM72 °FClear.9 mph61%29.95 "Hg10 mi
12:50 AM72 °FClear.9 mph61%29.95 "Hg10 mi
12:20 AM72 °FClear.9 mph61%29.95 "Hg10 mi
11:50 PM
Mon, Aug 3
73 °FClear.9 mph57%29.95 "Hg10 mi
11:20 PM75 °FClear.10 mph54%29.95 "Hg10 mi
10:50 PM77 °FClear.9 mph51%29.95 "Hg10 mi
10:20 PM75 °FClear.7 mph54%29.95 "Hg10 mi
9:50 PM75 °FSunny.6 mph54%29.95 "Hg10 mi
9:20 PM79 °FSunny.7 mph48%29.95 "Hg10 mi
8:50 PM81 °FSunny.8 mph45%29.95 "Hg10 mi
8:20 PM82 °FSunny.9 mph40%29.95 "Hg10 mi
7:50 PM84 °FSunny.12 mph37%29.95 "Hg10 mi
7:20 PM86 °FPassing clouds.13 mph33%29.95 "HgN/A
6:50 PM86 °FSunny.15 mph35%29.95 "Hg10 mi
6:20 PM86 °FPassing clouds.10 mph33%29.95 "HgN/A
Weather by CustomWeather, © 2015

See weather overviewHow to use our weather pages